Location: Pinhead Observatory
(34.4473°N, 118.1985°W)
Time: 20:15:32
(UTC-08:00)

CZ-4C R/B - Visible Passes

Search period start: 28 January 2015 00:00
Search period end: 07 February 2015 00:00
Orbit: 778 x 1224 km, 63.4° (Epoch: 28 January)

Date Brightness Start Highest point End Pass type
(mag) Time Alt. Az. Time Alt. Az. Time Alt. Az.
28 Jan 5.0 04:54:02 10° N 04:57:40 15° NE 05:01:46 10° ENE visible
29 Jan 4.5 05:26:18 10° N 05:32:11 29° NE 05:38:36 10° ESE visible
30 Jan 5.1 04:13:25 10° NNE 04:16:05 13° NE 04:19:12 10° ENE visible
30 Jan 3.5 05:59:19 10° NNW 06:06:16 56° NE 06:13:46 10° SE visible
31 Jan 4.7 04:45:16 10° N 04:50:43 24° NE 04:56:42 10° E visible
01 Feb 5.2 03:33:24 10° NNE 03:34:29 10° NNE 03:35:58 10° NE visible
01 Feb 3.8 05:18:09 10° NNW 05:24:55 47° NE 05:32:13 10° SE visible
02 Feb 4.8 04:04:29 11° N 04:09:14 21° NE 04:14:40 10° E visible
02 Feb 2.9 05:51:32 10° NNW 05:58:44 88° WSW 06:06:26 10° SSE visible
02 Feb 4.3 19:24:17 10° SSE 19:24:32 11° SSE 19:24:32 11° SSE visible
03 Feb 4.0 04:37:28 12° NNW 04:43:32 39° NE 04:50:36 10° ESE visible
03 Feb 3.9 19:56:39 10° SSW 19:58:20 21° SSW 19:58:20 21° SSW visible
04 Feb 4.9 03:25:19 15° NNE 03:27:42 17° NE 03:32:31 10° E visible
04 Feb 3.0 05:10:32 11° NNW 05:17:26 78° ENE 05:25:07 10° SE visible
04 Feb 3.4 18:43:40 10° SSE 18:46:55 21° ESE 18:46:55 21° ESE visible
04 Feb 4.3 20:30:27 10° SW 20:32:13 21° WSW 20:32:13 21° WSW visible
05 Feb 4.2 03:58:30 21° N 04:02:07 33° NE 04:08:52 10° ESE visible
05 Feb 3.1 05:44:03 10° NW 05:51:02 52° WSW 05:58:23 10° S visible
05 Feb 2.1 19:15:32 10° SSW 19:20:45 57° ESE 19:20:49 57° ESE visible
05 Feb 5.0 21:05:36 10° W 21:06:06 12° W 21:06:06 12° W visible
06 Feb 5.1 02:46:35 15° NE 02:46:35 15° NE 02:50:11 10° ENE visible
06 Feb 3.1 04:31:49 26° NNW 04:36:07 66° ENE 04:43:44 10° SE visible
06 Feb 4.0 06:18:46 10° WNW 06:24:28 24° WSW 06:30:06 10° SSW visible
06 Feb 3.7 18:03:17 10° SE 18:06:23 16° ESE 18:09:26 11° ENE visible
06 Feb 2.6 19:49:00 10° SW 19:54:18 57° NW 19:54:43 55° NW visible
